Terug naar catalogus

STARLINK-31554

ActiefCommunicatieVLEO
NORAD 59195·PAYLOAD·🇺🇸 United States

Gelanceerd Mar 10, 2024 vanaf Cape Canaveral Space Force Station

Loading…

Volgende Passages (komende 24 uur)

TLE

VersSource: CelesTrak SupGP

Epoch: Sep 14, 2026, 22:26 UTC

1 59195C 24045T   26257.93520833  .00031607  00000+0  11450-2 0  2575
2 59195  43.0006 103.9755 0001227 281.4672  13.7437 15.27555764    19

Volg STARLINK-31554 in realtime met AllMySat

Download on the App Store